Meteo Giornale » Osservazioni meteo Stati Uniti (USA) » Camarillo

ore: 16:55 - Osservazioni Meteo Camarillo
Lat. 34° 13' N Lon. 119° 5' W Alt. 23 metri s.l.m.

sereno America/Los_Angeles

17 °C

Sereno

Temp. 24 Ore

14 °C

20 °C

Nord

5.5 Km/h

Dew point 13 °C

Umidità 77 %

Visibilità  10 Km

Il sole sorge alle ore 06:46

Il sole tramonta alle ore 16:47

Data e Ora Cielo e Fenomeni T °C DP °C Um. % Pres. hPa Vis. km Vento km/h
Oggi h: 16:55 sereno Sereno 17 13 77 1018 10 N 5.5
Oggi h: 15:55 sereno Sereno 17 12 72 1019 10 SO 13
Oggi h: 14:55 coperto Coperto 19 11 59 1018 10 S/SO 13
Oggi h: 13:55 coperto Coperto 19 12 63 1018 10 SO 14.8
Oggi h: 12:55 coperto Coperto 20 11 56 1019 10 SO 13
Oggi h: 11:55 molto_nuvoloso Molto Nuvoloso 19 11 59 1019 10 O/SO 9.3
Oggi h: 10:55 coperto Coperto 19 11 59 1021 10 N 0
Oggi h: 09:55 coperto Coperto 18 11 63 1021 10 E/NE 9.3
Oggi h: 08:55 coperto Coperto 17 11 67 1020 10 E/NE 11.1
Oggi h: 07:55 coperto Coperto 15 11 76 1020 10 NE 7.4
Oggi h: 06:55 coperto Coperto 15 11 76 1019 10 N 0
Oggi h: 05:55 coperto Coperto 14 11 82 1018 10 E 9.3
Oggi h: 04:55 coperto Coperto 14 11 82 1018 10 N 5.5
Oggi h: 03:55 coperto Coperto 14 11 82 1017 10 NE 9.3
Oggi h: 02:55 coperto Coperto 14 11 82 1017 10 E/NE 13
Oggi h: 01:55 coperto Coperto 14 12 87 1017 10 E/NE 11.1
Oggi h: 01:52 coperto Coperto 14 12 87 1017 10 E/NE 11.1
Oggi h: 00:55 coperto Coperto 14 12 87 1017 10 N 5.5
Ieri h: 23:55 coperto Coperto 15 12 82 1016 10 E/NE 13
Ieri h: 23:32 coperto Coperto 14 12 87 1017 10 E/NE 9.3
Ieri h: 22:55 coperto Coperto 15 12 82 1016 10 E/NE 14.8
Ieri h: 21:55 coperto Coperto 15 13 87 1016 13 E 9.3
Ieri h: 20:27 coperto Coperto 14 12 87 1015 10 N 0
Ieri h: 20:09 coperto Coperto 14 12 87 1015 10 N 0
Ieri h: 19:55 coperto Coperto 14 12 87 1015 10 N 5.5
Ieri h: 18:55 poco_nuvoloso Poco Nuvoloso 14 12 87 1014 10 N 0
Ieri h: 17:55 sereno Sereno 14 12 87 1014 10 S/SO 9.3
Ieri h: 16:55 molto_nuvoloso Molto Nuvoloso 16 13 82 1013 10 S/SO 13
Ieri h: 16:44 molto_nuvoloso Molto Nuvoloso 17 12 72 1013 10 S 13